"Timestamp","TZ","WindDir_Mean (deg)","WindSpd_Mean (km/h)","WindSpd_Min (km/h)","WindSpd_Max (km/h)","Temp_Mean (deg)","RH_Mean (%)","MSLP_Mean (hPa)","Rain_Acc (mm)","Rain_Intensity (mm/h)","Hail_Acc (hits/cm2)","Hail_Intensity (hits/cm2hr)","Solar_Mean (W/m2)"
2022/07/05 00:00:00.007,n,30,2.88,2.52,2.88,10.4,83.8,1016.42,0.01,0.7,0,0,0.026131
2022/07/05 00:01:00.000,n,0,1.08,0.72,1.44,10.5,83.7,1016.42,0.02,0.2,0,0,0.028725
2022/07/05 00:02:00.003,n,252,4.32,3.6,4.68,10.5,83,1016.32,0.03,0.6,0,0,0.027847
2022/07/05 00:03:00.000,n,234,3.6,2.88,3.96,10.4,82.4,1016.22,0.04,0.8,0,0,0.025253
2022/07/05 00:04:00.000,n,201,3.96,3.24,4.32,10.3,82.3,1016.12,0.07,1.6,0,0,0.02964
2022/07/05 00:05:00.000,n,198,2.52,2.16,2.52,10.3,82.5,1016.02,0.09,1.5,0,0,0.025253
2022/07/05 00:06:00.011,n,119,3.96,2.88,4.68,10.3,82.3,1015.92,0.11,0.7,0,0,0.030479
2022/07/05 00:07:00.010,n,129,3.24,2.88,3.6,10.3,82.2,1015.82,0.13,1.2,0,0,0.027847
2022/07/05 00:08:00.007,n,107,2.52,2.16,2.88,10.3,82.6,1015.72,0.15,1.1,0,0,0.027847
2022/07/05 00:09:00.005,n,141,0.72,0,0.72,10.4,82.5,1015.62,0.18,2.3,0,0,0.027847
2022/07/05 00:10:00.000,n,44,3.6,2.52,5.04,10.4,82.5,1015.52,0.22,1.6,0,0,0.027847
2022/07/05 00:11:00.003,n,67,4.68,4.32,5.04,10.4,82.7,1015.42,0.24,1.8,0,0,0.027847
2022/07/05 00:12:00.000,n,41,3.96,3.24,3.96,10.5,83.1,1015.52,0.29,2.9,0,0,0.031357
2022/07/05 00:13:00.000,n,136,1.44,1.44,1.8,10.5,82.7,1015.72,0.32,1.6,0,0,0.030479
2022/07/05 00:14:00.000,n,246,2.88,2.52,2.88,10.5,82.7,1015.82,0.35,1.6,0,0,0.02964
2022/07/05 00:15:00.010,n,267,3.96,3.6,4.32,10.5,83.1,1015.92,0.38,1.7,0,0,0.030479
2022/07/05 00:16:00.008,n,251,3.24,2.52,7.56,10.5,83,1016.02,0.4,1.3,0,0,0.027008
2022/07/05 00:17:00.005,n,247,3.6,3.24,3.6,10.5,83,1016.12,0.42,1.3,0,0,0.028725
2022/07/05 00:18:00.004,n,265,3.6,3.24,3.6,10.5,82.8,1016.12,0.45,1.7,0,0,0.028725
2022/07/05 00:19:00.001,n,252,9,6.48,11.16,10.4,82.5,1016.22,0.46,1.1,0,0,0.028725
2022/07/05 00:20:00.000,n,262,11.16,8.28,14.04,10.4,82.6,1016.42,0.47,0.1,0,0,0.027008
2022/07/05 00:21:00.005,n,239,6.84,3.24,12.6,10.4,82.8,1016.62,0.47,0.4,0,0,0.025253
2022/07/05 00:22:00.000,n,257,9.72,7.2,12.96,10.4,82.8,1016.62,0.48,0.5,0,0,0.02964
2022/07/05 00:23:00.003,n,249,9,6.12,11.52,10.4,82.7,1016.62,0.49,0.6,0,0,0.031357
2022/07/05 00:24:00.009,n,225,3.6,1.8,7.56,10.4,82.8,1016.42,0.51,1.1,0,0,0.02964
2022/07/05 00:25:00.000,n,201,2.16,1.8,2.52,10.4,82.7,1016.32,0.52,0.4,0,0,0.027847
2022/07/05 00:26:00.005,n,136,1.08,0.36,2.16,10.4,83.1,1016.32,0.52,0.1,0,0,0.026131
2022/07/05 00:27:00.011,n,269,4.32,3.24,9,10.4,83.1,1016.42,0.54,1,0,0,0.027008
2022/07/05 00:28:00.001,n,210,3.24,1.44,3.96,10.4,82.9,1016.32,0.57,1.9,0,0,0.028725
2022/07/05 00:29:00.000,n,273,2.16,1.44,2.52,10.4,82.8,1016.32,0.59,1,0,0,0.026131
2022/07/05 00:30:00.000,n,255,3.6,3.6,3.6,10.4,82.9,1016.32,0.59,0.2,0,0,0.027008
2022/07/05 00:31:00.003,n,253,2.52,2.52,2.88,10.4,82.8,1016.22,0.6,0.3,0,0,0.027008
2022/07/05 00:32:00.000,n,273,4.32,3.96,4.68,10.4,83.4,1016.12,0.6,0,0,0,0.026131
2022/07/05 00:33:00.000,n,282,6.48,5.76,6.84,10.4,83.1,1016.12,0.63,1.8,0,0,0.027008
2022/07/05 00:34:00.006,n,264,3.24,2.88,3.96,10.4,82.6,1016.02,0.63,0,0,0,0.027008
2022/07/05 00:35:00.012,n,283,3.96,3.24,4.68,10.4,82.6,1016.02,0.63,0.1,0,0,0.028725
2022/07/05 00:36:00.002,n,255,4.68,3.24,7.92,10.3,82.6,1016.02,0.63,0,0,0,0.025253
2022/07/05 00:37:00.000,n,260,7.2,3.6,9,10.3,82.6,1016.12,0.63,0,0,0,0.028725
2022/07/05 00:38:00.000,n,284,3.96,3.6,4.32,10.3,82.7,1016.12,0.63,0,0,0,0.028725
2022/07/05 00:39:00.004,n,271,3.96,3.6,4.32,10.3,82.6,1016.02,0.64,0.4,0,0,0.028725
2022/07/05 00:40:00.000,n,163,2.16,0.72,4.68,10.3,82.6,1015.92,0.65,0.3,0,0,0.027847
2022/07/05 00:41:00.000,n,185,1.8,0.72,4.68,10.3,82.8,1015.82,0.65,0.1,0,0,0.027008
2022/07/05 00:42:00.006,n,104,1.8,0.36,5.4,10.3,83,1015.72,0.66,0.7,0,0,0.02964
2022/07/05 00:43:00.013,n,85,1.8,0.72,6.84,10.4,83.4,1015.72,0.67,0.2,0,0,0.027847
2022/07/05 00:44:00.003,n,170,5.4,3.6,8.64,10.4,83,1015.72,0.69,1.3,0,0,0.026131
2022/07/05 00:45:00.008,n,201,3.6,3.24,4.32,10.4,82.8,1015.82,0.7,0.6,0,0,0.02964
2022/07/05 00:46:00.000,n,281,1.8,1.44,3.6,10.4,83,1015.92,0.71,0.4,0,0,0.02964
2022/07/05 00:47:00.000,n,207,2.16,1.44,3.96,10.4,82.9,1015.82,0.71,0.1,0,0,0.028725
2022/07/05 00:48:00.000,n,176,2.52,1.44,3.96,10.4,82.9,1015.72,0.72,0.6,0,0,0.028725
2022/07/05 00:49:00.000,n,230,1.8,1.08,2.52,10.3,82.8,1015.72,0.72,0.2,0,0,0.028725
2022/07/05 00:50:00.006,n,229,1.8,1.8,2.16,10.3,82.9,1015.72,0.74,0.9,0,0,0.027008
2022/07/05 00:51:00.000,n,137,1.08,0.72,1.44,10.3,83,1015.72,0.76,1.2,0,0,0.027008
2022/07/05 00:52:00.002,n,113,2.52,1.8,3.24,10.4,83.2,1015.72,0.77,0.9,0,0,0.028725
2022/07/05 00:53:00.008,n,160,1.8,1.44,2.16,10.4,83.2,1015.72,0.81,2,0,0,0.027847
2022/07/05 00:54:00.016,n,225,0.36,0,0.72,10.4,83,1015.72,0.84,1.6,0,0,0.028725
2022/07/05 00:55:00.000,n,267,3.6,3.24,3.96,10.4,82.9,1015.72,0.89,3.1,0,0,0.027008
2022/07/05 00:56:00.000,n,264,3.6,3.24,3.6,10.4,82.7,1015.82,0.95,3.1,0,0,0.026131
2022/07/05 00:57:00.001,n,258,4.68,2.88,9,10.3,82.6,1015.82,0.97,1.6,0,0,0.030479
2022/07/05 00:58:00.007,n,268,6.48,4.32,9.72,10.3,82.5,1015.82,1.01,2.2,0,0,0.031357
2022/07/05 00:59:00.000,n,265,10.08,9.72,10.08,10.3,82.5,1015.82,1.04,1.8,0,0,0.02964
2022/07/05 01:00:00.003,n,271,7.2,5.4,11.16,10.2,82.5,1015.82,1.07,2,0,0,0.02964
2022/07/05 01:01:00.010,n,265,8.28,4.68,9.36,10.3,82.6,1015.92,1.1,1.7,0,0,0.031357
2022/07/05 01:02:00.000,n,266,7.92,5.04,11.88,10.3,82.5,1015.92,1.13,1.6,0,0,0.030479
2022/07/05 01:03:00.005,n,260,10.440002,7.92,13.68,10.3,82.4,1016.02,1.15,1.3,0,0,0.030479
2022/07/05 01:04:00.000,n,260,9.36,6.48,12.6,10.2,82.5,1016.12,1.17,1.3,0,0,0.031357
2022/07/05 01:05:00.000,n,331,2.88,1.44,4.68,10.2,82.5,1016.12,1.18,0.5,0,0,0.030479
2022/07/05 01:06:00.000,n,272,10.08,8.64,10.8,10.2,82.6,1016.22,1.18,0.4,0,0,0.032234
2022/07/05 01:07:00.000,n,267,6.12,5.04,7.92,10.3,82.6,1016.22,1.2,1,0,0,0.030479
2022/07/05 01:08:00.002,n,271,6.48,5.04,7.56,10.3,82.6,1016.12,1.23,1.5,0,0,0.033073
2022/07/05 01:09:00.009,n,279,7.2,6.48,8.28,10.3,82.8,1016.12,1.24,0.7,0,0,0.028725
2022/07/05 01:10:00.000,n,267,8.64,7.92,9.72,10.3,82.8,1016.02,1.25,0.7,0,0,0.031357
2022/07/05 01:11:00.005,n,268,5.76,5.04,6.12,10.3,82.9,1016.12,1.26,0.2,0,0,0.027008
2022/07/05 01:12:00.011,n,294,5.04,2.52,6.48,10.3,83.1,1016.12,1.26,0.5,0,0,0.02964
2022/07/05 01:13:00.001,n,232,7.56,6.84,8.28,10.3,83.2,1016.22,1.28,0.8,0,0,0.02964
2022/07/05 01:14:00.000,n,262,7.92,7.2,8.28,10.3,83.2,1016.42,1.3,1.1,0,0,0.027847
2022/07/05 01:15:00.000,n,274,7.56,5.04,13.68,10.3,83.3,1016.42,1.32,1.3,0,0,0.033073
2022/07/05 01:16:00.003,n,280,7.2,6.48,7.92,10.3,83.4,1016.42,1.35,1.8,0,0,0.026131
2022/07/05 01:17:00.000,n,248,6.84,6.12,7.92,10.3,83.4,1016.22,1.39,1.3,0,0,0.025253
2022/07/05 01:18:00.000,n,237,6.48,5.76,7.2,10.3,83.4,1016.12,1.45,4.5,0,0,0.031357
2022/07/05 01:19:00.006,n,255,3.96,3.24,7.92,10.3,83.5,1016.02,1.51,2.8,0,0,0.02964
2022/07/05 01:20:00.012,n,307,2.88,2.16,3.24,10.3,83.7,1015.92,1.56,3.4,0,0,0.031357
2022/07/05 01:21:00.002,n,281,3.96,3.6,3.96,10.3,83.9,1015.92,1.61,2.9,0,0,0.026131
2022/07/05 01:22:00.000,n,263,5.04,1.8,9.72,10.3,83.6,1015.92,1.67,3.3,0,0,0.027847
2022/07/05 01:23:00.000,n,271,7.2,6.48,12.24,10.3,83.7,1016.02,1.72,3.4,0,0,0.026131
2022/07/05 01:24:00.004,n,272,4.32,3.96,5.04,10.3,83.6,1016.12,1.77,3.3,0,0,0.027008
2022/07/05 01:25:00.000,n,277,4.32,3.24,5.04,10.3,83.7,1016.12,1.83,3.4,0,0,0.025253
2022/07/05 01:26:00.000,n,302,1.8,1.44,2.16,10.3,83.8,1016.12,1.9,4.2,0,0,0.027847
2022/07/05 01:27:00.006,n,249,1.44,1.08,1.44,10.3,83.9,1016.02,1.95,2.8,0,0,0.027008
2022/07/05 01:28:00.011,n,331,1.08,1.08,1.8,10.3,84.1,1015.82,1.98,2.1,0,0,0.02964
2022/07/05 01:29:00.001,n,72,2.88,2.52,3.6,10.4,84.6,1015.72,2.07,4.9,0,0,0.02964
2022/07/05 01:30:00.008,n,67,3.6,3.24,3.96,10.5,84.6,1015.62,2.11,2.9,0,0,0.028725
2022/07/05 01:31:00.000,n,97,0.72,0.36,0.72,10.5,84.7,1015.72,2.17,3.1,0,0,0.028725
2022/07/05 01:32:00.000,n,252,3.24,2.16,6.48,10.6,84.5,1015.92,2.21,2.8,0,0,0.028725
2022/07/05 01:33:00.000,n,238,3.96,3.6,4.32,10.6,84.4,1016.02,2.25,2.5,0,0,0.027008
2022/07/05 01:34:00.000,n,260,2.88,2.52,3.24,10.5,84,1016.12,2.29,1.9,0,0,0.030479
2022/07/05 01:35:00.006,n,274,5.04,4.68,5.4,10.5,83.8,1016.22,2.32,1.9,0,0,0.028725
2022/07/05 01:36:00.000,n,279,4.32,3.96,4.68,10.4,83.6,1016.12,2.35,1.7,0,0,0.025253
2022/07/05 01:37:00.001,n,76,2.52,2.16,2.88,10.4,83.9,1016.02,2.39,2.3,0,0,0.026131
2022/07/05 01:38:00.007,n,129,0.36,0,0.72,10.4,84.1,1015.92,2.42,2.1,0,0,0.026131
2022/07/05 01:39:00.014,n,130,0.72,0.36,1.08,10.4,84.3,1015.92,2.45,1.9,0,0,0.027847
2022/07/05 01:40:00.000,n,114,1.08,0.72,1.44,10.5,84.3,1015.92,2.46,0.8,0,0,0.026131
2022/07/05 01:41:00.000,n,186,0.36,0,0.36,10.5,84.3,1015.92,2.47,0.6,0,0,0.028725
2022/07/05 01:42:00.001,n,241,0.36,0.36,0.72,10.5,84.4,1015.82,2.48,0.4,0,0,0.030479
2022/07/05 01:43:00.007,n,71,1.8,1.08,2.52,10.5,84.4,1015.72,2.49,0.5,0,0,0.027008
2022/07/05 01:44:00.000,n,234,0.72,0.72,1.08,10.5,84.5,1015.62,2.5,0.3,0,0,0.028725
2022/07/05 01:45:00.003,n,259,0.36,0,0.72,10.6,84.4,1015.52,2.5,0.4,0,0,0.027847
2022/07/05 01:46:00.010,n,303,1.08,0.72,1.44,10.6,84.3,1015.42,2.51,0.5,0,0,0.028725
2022/07/05 01:47:00.001,n,99,2.52,2.16,2.88,10.5,84.2,1015.32,2.52,0.1,0,0,0.031357
2022/07/05 01:48:00.007,n,121,2.52,1.8,2.88,10.5,84.1,1015.22,2.52,0,0,0,0.027847
2022/07/05 01:49:00.000,n,74,1.8,1.08,2.52,10.5,84.1,1015.12,2.52,0.1,0,0,0.030479
2022/07/05 01:50:00.003,n,50,3.24,1.44,4.68,10.5,84.4,1015.12,2.52,0.1,0,0,0.031357
2022/07/05 01:51:00.000,n,71,5.04,4.32,5.76,10.5,84,1015.02,2.52,0,0,0,0.031357
2022/07/05 01:52:00.000,n,66,2.52,2.16,3.24,10.5,84.1,1015.02,2.52,0.1,0,0,0.027847
2022/07/05 01:53:00.005,n,100,2.88,2.88,3.24,10.4,83.3,1015.02,2.53,0.1,0,0,0.031357
2022/07/05 01:54:00.000,n,108,2.16,2.16,2.52,10.3,83.3,1015.12,2.53,0,0,0,0.030479
2022/07/05 01:55:00.001,n,217,1.8,1.44,2.52,10.3,83.5,1015.12,2.53,0,0,0,0.027847
2022/07/05 01:56:00.007,n,199,3.96,3.6,3.96,10.3,83.8,1015.22,2.53,0,0,0,0.032234
2022/07/05 01:57:00.013,n,211,2.88,2.52,3.24,10.3,83.4,1015.42,2.53,0,0,0,0.030479
2022/07/05 01:58:00.000,n,251,3.6,3.24,3.96,10.3,83.4,1015.42,2.53,0.4,0,0,0.02964
2022/07/05 01:59:00.000,n,259,3.6,3.24,4.32,10.2,83.6,1015.42,2.54,0.5,0,0,0.030479
2022/07/05 02:00:00.000,n,217,1.8,1.44,2.16,10.2,83.6,1015.32,2.55,0.7,0,0,0.032234
2022/07/05 02:01:00.004,n,167,2.88,2.16,3.24,10.3,83.7,1015.32,2.56,0.5,0,0,0.033073
2022/07/05 02:02:00.000,n,118,2.88,2.88,3.24,10.3,83.9,1015.32,2.58,0.6,0,0,0.033073
2022/07/05 02:03:00.000,n,135,2.52,2.16,2.88,10.3,83.9,1015.22,2.58,0.2,0,0,0.032234
2022/07/05 02:04:00.006,n,118,1.44,1.08,1.44,10.3,83.9,1015.22,2.58,0,0,0,0.02964
2022/07/05 02:05:00.012,n,99,1.8,1.08,2.52,10.3,84.2,1015.22,2.58,0,0,0,0.032234
2022/07/05 02:06:00.003,n,97,1.08,0.72,1.8,10.4,84.5,1015.12,2.59,0.4,0,0,0.034828
2022/07/05 02:07:00.000,n,87,3.6,3.24,3.6,10.4,84.3,1015.02,2.59,0.2,0,0,0.031357
2022/07/05 02:08:00.000,n,81,5.04,3.96,6.12,10.4,84.2,1014.92,2.6,0.5,0,0,0.02964
2022/07/05 02:09:00.000,n,113,3.24,2.88,3.24,10.4,84.3,1014.92,2.6,0.2,0,0,0.032234
2022/07/05 02:10:00.000,n,185,2.88,2.16,3.6,10.4,84.2,1014.92,2.61,0.5,0,0,0.033989
2022/07/05 02:11:00.001,n,238,4.32,3.96,5.4,10.4,84.2,1015.12,2.62,0.6,0,0,0.033989
2022/07/05 02:12:00.008,n,244,6.12,5.04,7.2,10.4,84.2,1015.42,2.64,0.5,0,0,0.033989
2022/07/05 02:13:00.000,n,270,5.4,4.32,7.2,10.4,84.4,1015.52,2.64,0.6,0,0,0.033989
2022/07/05 02:14:00.003,n,276,7.2,3.6,12.96,10.4,84.4,1015.52,2.64,0,0,0,0.032234
2022/07/05 02:15:00.009,n,265,4.68,3.6,10.440002,10.4,84.4,1015.42,2.65,0.4,0,0,0.030479
2022/07/05 02:16:00.000,n,57,2.88,1.08,5.4,10.4,84.5,1015.22,2.66,0.3,0,0,0.035706
2022/07/05 02:17:00.000,n,96,2.88,1.8,3.96,10.5,85,1014.92,2.66,0.2,0,0,0.034828
2022/07/05 02:18:00.000,n,95,4.68,4.32,6.48,10.5,84.7,1014.72,2.66,0,0,0,0.033073
2022/07/05 02:19:00.001,n,315,1.08,0.36,2.52,10.5,84.6,1014.52,2.69,1.5,0,0,0.032234
2022/07/05 02:20:00.008,n,120,3.24,2.52,3.6,10.5,84.7,1014.52,2.7,0.8,0,0,0.032234
2022/07/05 02:21:00.000,n,105,3.96,3.24,4.32,10.5,84.5,1014.52,2.72,0.9,0,0,0.030479
2022/07/05 02:22:00.004,n,154,7.2,3.24,9,10.4,84.5,1014.52,2.73,0.7,0,0,0.033989
2022/07/05 02:23:00.011,n,192,5.76,4.32,7.92,10.4,84.6,1014.72,2.74,0.7,0,0,0.030479
2022/07/05 02:24:00.001,n,210,3.24,1.44,6.84,10.4,84.5,1014.82,2.75,0.1,0,0,0.028725
2022/07/05 02:25:00.000,n,241,2.88,2.88,3.24,10.4,84.4,1015.02,2.76,0.9,0,0,0.031357
2022/07/05 02:26:00.000,n,272,6.12,4.68,10.8,10.4,84.5,1015.22,2.76,0,0,0,0.035706
2022/07/05 02:27:00.004,n,272,7.92,5.4,12.24,10.3,84.5,1015.22,2.76,0.1,0,0,0.033073
2022/07/05 02:28:00.000,n,273,6.48,6.48,6.84,10.3,84.4,1015.22,2.77,0.2,0,0,0.031357
2022/07/05 02:29:00.000,n,257,8.64,5.04,10.8,10.3,84.4,1015.02,2.77,0.2,0,0,0.031357
2022/07/05 02:30:00.006,n,225,3.96,1.8,7.56,10.3,84.6,1014.92,2.77,0,0,0,0.030479
2022/07/05 02:31:00.000,n,259,0.72,0.36,1.08,10.3,84.8,1015.02,2.77,0,0,0,0.033989
2022/07/05 02:32:00.002,n,292,4.68,3.6,5.04,10.3,84.8,1015.02,2.77,0,0,0,0.032234
2022/07/05 02:33:00.008,n,276,3.6,3.24,3.96,10.3,84.7,1015.02,2.77,0,0,0,0.033989
2022/07/05 02:34:00.000,n,291,2.52,1.8,3.24,10.3,84.7,1015.02,2.77,0,0,0,0.032234
2022/07/05 02:35:00.003,n,257,2.52,2.52,2.88,10.3,84.7,1014.92,2.78,0.1,0,0,0.030479
2022/07/05 02:36:00.000,n,125,0.72,0.36,1.08,10.3,84.8,1014.82,2.78,0,0,0,0.033989
2022/07/05 02:37:00.000,n,264,1.8,1.44,1.8,10.3,84.9,1014.82,2.78,0,0,0,0.033073
2022/07/05 02:38:00.006,n,264,2.88,2.52,3.24,10.4,84.9,1014.82,2.78,0,0,0,0.033989
2022/07/05 02:39:00.000,n,282,2.88,2.16,3.6,10.3,84.8,1014.82,2.78,0,0,0,0.032234
2022/07/05 02:40:00.001,n,308,1.8,1.44,2.16,10.3,84.8,1014.82,2.78,0,0,0,0.033989
2022/07/05 02:41:00.006,n,61,2.16,0.72,2.88,10.4,85.3,1014.72,2.78,0,0,0,0.033989
2022/07/05 02:42:00.012,n,85,2.52,1.44,3.24,10.5,85.6,1014.62,2.78,0,0,0,0.033989
2022/07/05 02:43:00.001,n,56,2.52,2.16,2.88,10.6,85.7,1014.72,2.78,0,0,0,0.034828
2022/07/05 02:44:00.000,n,178,3.6,2.52,5.76,10.6,85.5,1014.82,2.78,0,0,0,0.034828
2022/07/05 02:45:00.000,n,128,5.4,2.52,6.48,10.6,85.2,1015.02,2.78,0,0,0,0.033989
2022/07/05 02:46:00.002,n,252,5.04,1.08,5.76,10.6,84.8,1015.02,2.78,0,0,0,0.033073
2022/07/05 02:47:00.007,n,256,5.04,3.6,10.08,10.5,84.4,1015.02,2.78,0,0,0,0.032234
2022/07/05 02:48:00.000,n,270,4.32,3.96,5.04,10.4,84.4,1015.02,2.78,0,0,0,0.033073
2022/07/05 02:49:00.003,n,167,3.24,2.88,3.6,10.4,84.5,1014.82,2.78,0,0,0,0.033989
2022/07/05 02:50:00.008,n,141,3.96,1.8,5.04,10.3,84.6,1014.82,2.78,0,0,0,0.036583
2022/07/05 02:51:00.014,n,262,5.04,4.68,5.76,10.3,84.5,1014.82,2.78,0,0,0,0.034828
2022/07/05 02:52:00.000,n,266,7.2,5.4,11.88,10.3,84.6,1014.82,2.78,0,0,0,0.036583
2022/07/05 02:53:00.000,n,264,5.76,5.4,6.12,10.3,84.5,1014.92,2.78,0.1,0,0,0.037422
2022/07/05 02:54:00.000,n,290,1.8,0.72,3.24,10.3,84.6,1015.02,2.78,0,0,0,0.034828
2022/07/05 02:55:00.006,n,272,7.92,7.56,8.28,10.3,84.7,1015.02,2.78,0.1,0,0,0.034828
2022/07/05 02:56:00.000,n,243,6.48,5.4,7.2,10.3,84.5,1015.12,2.79,0.1,0,0,0.034828
2022/07/05 02:57:00.002,n,278,3.96,2.16,5.4,10.3,84.5,1015.12,2.79,0,0,0,0.036583
2022/07/05 02:58:00.008,n,253,6.12,4.32,7.92,10.3,84.6,1015.02,2.79,0.5,0,0,0.037422
2022/07/05 02:59:00.014,n,259,7.92,7.2,8.28,10.2,84.6,1015.02,2.8,0,0,0,0.035706
2022/07/05 03:00:00.004,n,270,6.84,5.4,8.28,10.2,84.4,1015.12,2.8,0,0,0,0.036583
2022/07/05 03:01:00.000,n,277,7.2,6.12,8.28,10.2,84.4,1015.12,2.8,0,0,0,0.036583
2022/07/05 03:02:00.000,n,275,4.32,3.6,5.04,10.2,84.6,1015.12,2.81,0.5,0,0,0.037422
2022/07/05 03:03:00.000,n,249,3.24,2.88,3.24,10.2,84.6,1015.02,2.81,0.1,0,0,0.037422
2022/07/05 03:04:00.000,n,286,2.52,2.16,3.6,10.2,84.5,1014.92,2.81,0.2,0,0,0.033989
2022/07/05 03:05:00.001,n,243,3.96,2.88,4.32,10.2,84.6,1014.82,2.82,0.2,0,0,0.037422
2022/07/05 03:06:00.008,n,255,7.2,3.24,10.8,10.2,84.5,1014.72,2.82,0.1,0,0,0.036583
2022/07/05 03:07:00.000,n,245,2.88,2.52,3.24,10.2,84.7,1014.72,2.82,0.2,0,0,0.033073
2022/07/05 03:08:00.003,n,246,1.8,1.44,2.16,10.2,84.8,1014.62,2.84,0.6,0,0,0.037422
2022/07/05 03:09:00.009,n,261,4.32,3.24,5.04,10.2,84.8,1014.62,2.84,0.2,0,0,0.034828
2022/07/05 03:10:00.000,n,277,6.48,5.76,7.2,10.2,84.8,1014.62,2.84,0.2,0,0,0.035706
2022/07/05 03:11:00.000,n,259,4.32,3.24,9.36,10.2,84.7,1014.52,2.85,0.3,0,0,0.033073
2022/07/05 03:12:00.000,n,62,1.8,1.44,2.52,10.2,84.8,1014.42,2.87,1.5,0,0,0.034828
2022/07/05 03:13:00.001,n,140,3.96,3.24,4.68,10.2,84.9,1014.32,2.88,0.5,0,0,0.036583
2022/07/05 03:14:00.008,n,139,5.76,3.6,11.52,10.2,84.8,1014.22,2.89,0.7,0,0,0.034828
2022/07/05 03:15:00.000,n,180,11.16,2.52,37.08,10.2,84.6,1014.22,2.9,0.6,0,0,0.033073
2022/07/05 03:16:00.011,n,344,1.44,0.72,1.8,10.2,84.7,1014.32,2.91,0.8,0,0,0.033073
2022/07/05 03:17:00.001,n,190,0.36,0.36,0.72,10.2,85,1014.42,2.93,0.7,0,0,0.035706
2022/07/05 03:18:00.007,n,179,0.72,0.36,0.72,10.2,85.2,1014.42,2.94,0.8,0,0,0.034828
2022/07/05 03:19:00.000,n,261,5.04,4.32,9.72,10.3,85.1,1014.42,2.96,1.3,0,0,0.032234
2022/07/05 03:20:00.003,n,266,2.52,2.16,2.88,10.3,84.9,1014.52,2.98,0.7,0,0,0.033073
2022/07/05 03:21:00.000,n,234,1.8,1.44,2.16,10.2,84.8,1014.42,2.99,0.6,0,0,0.033073
2022/07/05 03:22:00.000,n,204,2.16,1.8,2.52,10.2,84.8,1014.42,2.99,0.5,0,0,0.035706
2022/07/05 03:23:00.007,n,214,1.44,1.08,1.8,10.2,84.8,1014.52,3,0,0,0,0.032234
2022/07/05 03:24:00.000,n,291,5.04,4.68,5.4,10.2,84.9,1014.62,3.01,0.5,0,0,0.034828
2022/07/05 03:25:00.003,n,248,2.88,2.52,3.24,10.2,84.7,1014.72,3.01,0.5,0,0,0.033073
2022/07/05 03:26:00.010,n,254,6.84,5.04,11.16,10.2,84.6,1014.72,3.03,1.2,0,0,0.034828
2022/07/05 03:27:00.000,n,254,2.88,2.52,3.6,10.2,84.6,1014.72,3.07,2,0,0,0.034828
2022/07/05 03:28:00.000,n,271,7.92,4.68,10.08,10.2,84.6,1014.72,3.09,1.3,0,0,0.036583
2022/07/05 03:29:00.000,n,266,2.16,1.8,2.52,10.2,84.6,1014.62,3.1,0.6,0,0,0.035706
2022/07/05 03:30:00.002,n,300,1.8,1.8,2.16,10.2,84.8,1014.62,3.12,0.8,0,0,0.036583
2022/07/05 03:31:00.000,n,142,0.72,0.36,1.08,10.2,84.9,1014.52,3.13,0.7,0,0,0.037422
2022/07/05 03:32:00.000,n,275,1.44,1.08,2.16,10.2,84.9,1014.42,3.13,0.3,0,0,0.035706
2022/07/05 03:33:00.003,n,73,0.72,0,1.44,10.2,84.9,1014.32,3.14,0.4,0,0,0.034828
2022/07/05 03:34:00.010,n,277,1.08,0.36,2.16,10.3,85,1014.22,3.14,0.1,0,0,0.033073
2022/07/05 03:35:00.000,n,93,1.44,0.36,3.24,10.3,85,1014.22,3.18,2.1,0,0,0.033073
2022/07/05 03:36:00.005,n,159,3.24,2.88,3.6,10.3,84.9,1014.22,3.19,0.5,0,0,0.035706
2022/07/05 03:37:00.000,n,165,3.24,2.88,3.6,10.3,84.8,1014.32,3.19,0.3,0,0,0.033073
2022/07/05 03:38:00.000,n,163,22.319998,4.32,40.32,10.3,84.9,1014.42,3.2,0.3,0,0,0.034828
2022/07/05 03:39:00.000,n,160,1.8,1.44,2.52,10.3,84.8,1014.42,3.2,0.2,0,0,0.033989
2022/07/05 03:40:00.007,n,145,3.24,2.88,3.96,10.2,84.8,1014.32,3.2,0,0,0,0.033073
2022/07/05 03:41:00.000,n,110,4.32,4.32,4.68,10.3,85,1014.12,3.21,0.3,0,0,0.036583
2022/07/05 03:42:00.003,n,140,8.28,7.92,8.28,10.2,84.7,1013.92,3.21,0.2,0,0,0.035706
2022/07/05 03:43:00.010,n,117,7.2,6.12,7.92,10.2,84.6,1013.72,3.22,0.2,0,0,0.038338
2022/07/05 03:44:00.000,n,96,4.32,3.6,5.04,10.2,84.9,1013.62,3.22,0,0,0,0.034828
2022/07/05 03:45:00.005,n,33,5.04,3.96,6.84,10.2,84.9,1013.62,3.22,0,0,0,0.034828
2022/07/05 03:46:00.000,n,102,0.72,0.36,1.08,10.2,85.1,1013.52,3.22,0.1,0,0,0.034828
2022/07/05 03:47:00.001,n,92,7.56,7.56,7.92,10.3,85,1013.42,3.22,0,0,0,0.033073
2022/07/05 03:48:00.000,n,64,2.52,0.72,3.24,10.2,84.9,1013.42,3.22,0.1,0,0,0.035706
2022/07/05 03:49:00.000,n,107,6.12,5.4,7.2,10.2,84.9,1013.52,3.22,0,0,0,0.034828
2022/07/05 03:50:00.003,n,129,6.84,5.76,7.92,10.2,84.8,1013.62,3.22,0,0,0,0.033989
2022/07/05 03:51:00.009,n,139,7.92,7.2,8.28,10.2,84.6,1013.62,3.23,0,0,0,0.033989
2022/07/05 03:52:00.000,n,150,6.48,4.68,10.08,10.1,84.8,1013.82,3.23,0.1,0,0,0.031357
2022/07/05 03:53:00.005,n,246,9,5.4,11.88,10.1,85,1014.12,3.23,0,0,0,0.031357
2022/07/05 03:54:00.011,n,259,6.84,3.96,11.52,10.2,85.2,1014.32,3.23,0,0,0,0.033073
2022/07/05 03:55:00.001,n,277,8.64,7.92,9,10.2,85,1014.52,3.23,0,0,0,0.034828
2022/07/05 03:56:00.000,n,278,8.28,7.92,8.64,10.2,85,1014.52,3.23,0,0,0,0.033073
2022/07/05 03:57:00.000,n,249,8.28,4.68,11.16,10.2,85,1014.52,3.23,0,0,0,0.028725
2022/07/05 03:58:00.003,n,272,2.16,1.8,2.52,10.2,85.1,1014.32,3.23,0.1,0,0,0.027847
2022/07/05 03:59:00.009,n,253,1.8,1.08,6.48,10.2,85.1,1014.22,3.24,0.4,0,0,0.02964
2022/07/05 04:00:00.000,n,158,5.76,2.16,8.64,10.2,85.2,1014.12,3.24,0.3,0,0,0.028725
2022/07/05 04:01:00.005,n,265,2.88,1.08,4.68,10.3,85.2,1014.02,3.26,0.9,0,0,0.02964
2022/07/05 04:02:00.012,n,123,2.52,1.8,2.88,10.3,85.2,1013.92,3.27,0.6,0,0,0.026131
2022/07/05 04:03:00.002,n,171,3.6,2.88,4.32,10.3,85.2,1013.82,3.27,0.2,0,0,0.031357
2022/07/05 04:04:00.000,n,141,7.92,7.56,8.28,10.2,85,1013.72,3.28,0.2,0,0,0.033073
2022/07/05 04:05:00.000,n,140,5.4,3.96,5.76,10.2,84.8,1013.62,3.28,0,0,0,0.031357
2022/07/05 04:06:00.004,n,62,4.32,3.24,6.12,10.2,85.3,1013.52,3.28,0,0,0,0.02964
2022/07/05 04:07:00.000,n,86,6.12,5.4,7.92,10.3,85.6,1013.42,3.28,0,0,0,0.02964
2022/07/05 04:08:00.000,n,86,5.76,5.04,5.76,10.3,85.4,1013.32,3.28,0,0,0,0.032234
2022/07/05 04:09:00.006,n,55,1.08,0.36,2.16,10.3,85,1013.32,3.28,0,0,0,0.02964
2022/07/05 04:10:00.012,n,59,4.68,3.96,9,10.3,85.3,1013.32,3.28,0,0,0,0.030479
2022/07/05 04:11:00.003,n,92,4.32,3.96,4.68,10.3,85.1,1013.42,3.28,0,0,0,0.027847
2022/07/05 04:12:00.008,n,117,3.6,3.24,3.96,10.2,85,1013.42,3.28,0,0,0,0.030479
2022/07/05 04:13:00.000,n,84,5.04,1.08,7.56,10.2,85,1013.42,3.28,0,0,0,0.02964
2022/07/05 04:14:00.003,n,262,5.04,4.32,5.76,10.2,85.2,1013.62,3.28,0,0,0,0.031357
2022/07/05 04:15:00.000,n,274,6.84,6.48,6.84,10.2,85.3,1013.82,3.28,0,0,0,0.027008
2022/07/05 04:16:00.000,n,269,6.12,4.68,6.84,10.3,85.3,1014.02,3.28,0,0,0,0.030479
2022/07/05 04:17:00.004,n,257,9.72,7.2,13.68,10.3,85.2,1014.12,3.28,0,0,0,0.028725
2022/07/05 04:18:00.009,n,270,11.16,9.72,15.48,10.2,85,1014.12,3.28,0,0,0,0.027008
2022/07/05 04:19:00.000,n,272,4.32,3.6,5.04,10.2,85,1014.22,3.28,0,0,0,0.02964
2022/07/05 04:20:00.004,n,257,16.2,12.24,20.16,10.2,84.9,1014.32,3.28,0,0,0,0.028725
2022/07/05 04:21:00.009,n,257,7.92,6.12,9.36,10.2,85,1014.42,3.28,0,0,0,0.028725
2022/07/05 04:22:00.000,n,274,7.56,6.84,7.92,10.2,85,1014.52,3.28,0,0,0,0.028725
2022/07/05 04:23:00.000,n,242,7.92,5.4,12.24,10.2,85.1,1014.52,3.28,0,0,0,0.028725
2022/07/05 04:24:00.000,n,283,7.92,6.84,9.36,10.2,85.1,1014.52,3.28,0,0,0,0.02964
2022/07/05 04:25:00.000,n,257,11.16,9,15.48,10.2,85.1,1014.52,3.28,0,0,0,0.027008
2022/07/05 04:26:00.005,n,258,10.440002,7.92,14.04,10.2,85,1014.52,3.28,0,0,0,0.025253
2022/07/05 04:27:00.000,n,279,7.2,6.12,7.92,10.2,85.1,1014.42,3.28,0,0,0,0.02964
2022/07/05 04:28:00.000,n,288,7.2,6.84,7.92,10.2,85.1,1014.42,3.28,0,0,0,0.027847
2022/07/05 04:29:00.005,n,280,3.24,1.8,3.96,10.2,85.1,1014.32,3.28,0,0,0,0.02964
2022/07/05 04:30:00.011,n,176,2.52,1.8,6.84,10.2,85.2,1014.22,3.28,0,0,0,0.027008
2022/07/05 04:31:00.001,n,139,1.8,1.44,2.52,10.2,85.3,1014.12,3.28,0,0,0,0.027847
2022/07/05 04:32:00.000,n,272,5.4,3.6,10.440002,10.2,85.5,1014.12,3.28,0,0,0,0.024376
2022/07/05 04:33:00.000,n,258,8.64,6.84,9.36,10.2,85.3,1014.32,3.28,0,0,0,0.025253
2022/07/05 04:34:00.000,n,288,6.84,2.16,10.8,10.2,85.2,1014.52,3.28,0,0,0,0.027008
2022/07/05 04:35:00.006,n,274,11.52,10.440002,14.04,10.2,85.1,1014.62,3.28,0,0,0,0.026131
2022/07/05 04:36:00.000,n,260,9.36,6.48,27.359998,10.2,85.1,1014.62,3.28,0,0,0,0.02964
2022/07/05 04:37:00.000,n,268,5.4,2.88,9.72,10.2,85.2,1014.62,3.28,0,0,0,0.028725
2022/07/05 04:38:00.006,n,175,2.88,0.36,6.48,10.2,85.5,1014.52,3.28,0,0,0,0.027008
2022/07/05 04:39:00.012,n,263,6.84,4.32,10.08,10.3,85.4,1014.52,3.28,0,0,0,0.028725
2022/07/05 04:40:00.001,n,172,9.36,7.2,12.6,10.2,85.3,1014.52,3.28,0,0,0,0.027008